Fremont, MI

6:07 PM EDT on September 19, 2017 (GMT -0400)
Fremont

Weather History for KFFX - October, 2013

Change the Weather History Date:

Monday, October 7, 2013

  Actual Average (KMKG) Record (KMKG)
Temperature  
Mean Temperature 52 °F -  
Max Temperature 60 °F 60 °F 82 °F (2007)
Min Temperature 44 °F 42 °F 27 °F (1964)
Degree Days  
Heating Degree Days 13    
Growing Degree Days 2 (Base 50)    
Moisture  
Dew Point 47 °F    
Average Humidity 87    
Maximum Humidity 100    
Minimum Humidity 55    
Precipitation  
Precipitation 0.00 in - - ()
Sea Level Pressure  
Sea Level Pressure 29.82 in    
Wind  
Wind Speed 6 mph (WSW)    
Max Wind Speed 17 mph    
Max Gust Speed 22 mph    
Visibility 10 miles    
Events Rain    
Averages and records for this station are not official NWS values.
T = Trace of Precipitation, MM = Missing Value Source: NWS Daily Summary

Daily Weather History Graph

Daily Weather History Graph

Search for Another Location

Airport or City:

Trip Planner

Search our weather history database for the weather conditions in past years. The results will help you decide how hot, cold, wet, or windy it might be!

Date:

Astronomy

Oct. 07, 2013 Rise Set
Actual Time 7:48 AM EDT 7:13 PM EDT
Civil Twilight 7:20 AM EDT 7:42 PM EDT
Nautical Twilight 6:47 AM EDT 8:15 PM EDT
Astronomical Twilight 6:13 AM EDT 8:48 PM EDT
Moon 10:43 AM EDT (10/7) 8:52 PM EDT (10/7)
Length of Visible Light 12h 22m
Length of Day
11h 25m
Waxing Crescent, 8% of the Moon is Illuminated
Oct 7
Waxing Crescent
Oct 11
First Quarter
Oct 18
Full
Oct 26
Last Quarter
Nov 3
New

Hourly Weather History & Observations

Time (EDT) Temp. Windchill Dew Point Humidity Pressure Visibility Wind Dir Wind Speed Gust Speed Precip Events Conditions
12:18 AM 50.0 °F - 50.0 °F 100% 29.69 in 7.0 mi SW 4.6 mph - N/A Rain Rain
12:39 AM 50.0 °F - 50.0 °F 100% 29.69 in 10.0 mi South 4.6 mph - N/A   Light Drizzle
12:59 AM 50.0 °F - 50.0 °F 100% 29.68 in 10.0 mi SSW 4.6 mph - N/A   Overcast
1:24 AM 50.0 °F - 50.0 °F 100% 29.67 in 10.0 mi SW 4.6 mph - N/A   Overcast
1:38 AM 51.8 °F - 50.0 °F 94% 29.67 in 10.0 mi SW 5.8 mph - N/A Rain Rain
1:59 AM 51.8 °F - 50.0 °F 94% 29.67 in 10.0 mi WSW 6.9 mph - N/A   Light Drizzle
2:18 AM 50.0 °F - 50.0 °F 100% 29.68 in 10.0 mi WSW 5.8 mph - N/A Rain Light Rain
2:40 AM 50.0 °F - 48.2 °F 94% 29.67 in 10.0 mi WSW 5.8 mph - N/A   Overcast
2:59 AM 50.0 °F - 50.0 °F 100% 29.67 in 10.0 mi SSW 4.6 mph - N/A   Overcast
3:18 AM 50.0 °F - 50.0 °F 100% 29.66 in 10.0 mi SW 5.8 mph - N/A   Overcast
3:43 AM 50.0 °F - 48.2 °F 94% 29.66 in 10.0 mi WSW 4.6 mph - N/A   Overcast
3:59 AM 50.0 °F - 48.2 °F 94% 29.66 in 10.0 mi SW 3.5 mph - N/A   Overcast
4:18 AM 48.2 °F - 48.2 °F 100% 29.66 in 10.0 mi Calm Calm - N/A   Mostly Cloudy
4:45 AM 48.2 °F - 48.2 °F 100% 29.66 in 10.0 mi Calm Calm - N/A   Overcast
4:59 AM 48.2 °F - 48.2 °F 100% 29.66 in 10.0 mi Calm Calm - N/A   Overcast
5:18 AM 48.2 °F - 48.2 °F 100% 29.67 in 10.0 mi South 4.6 mph - N/A   Overcast
5:44 AM 48.2 °F - 46.4 °F 93% 29.67 in 10.0 mi South 9.2 mph - N/A   Drizzle
6:00 AM 48.2 °F - 46.4 °F 93% 29.68 in 10.0 mi SSW 9.2 mph - N/A   Overcast
6:27 AM 48.2 °F - 46.4 °F 93% 29.68 in 10.0 mi SSW 8.1 mph - N/A Rain Light Rain
6:47 AM 48.2 °F - 46.4 °F 93% 29.68 in 10.0 mi SSW 5.8 mph - N/A   Overcast
7:00 AM 48.2 °F - 46.4 °F 93% 29.68 in 10.0 mi SSW 5.8 mph - N/A   Overcast
7:40 AM 48.2 °F - 48.2 °F 100% 29.69 in 10.0 mi SW 3.5 mph - N/A   Overcast
8:00 AM 48.2 °F - 48.2 °F 100% 29.69 in 10.0 mi Calm Calm - N/A   Overcast
8:31 AM 48.2 °F - 48.2 °F 100% 29.70 in 10.0 mi SW 4.6 mph - N/A   Mostly Cloudy
8:41 AM 48.2 °F - 48.2 °F 100% 29.70 in 10.0 mi SW 5.8 mph - N/A   Mostly Cloudy
8:59 AM 50.0 °F - 48.2 °F 94% 29.71 in 10.0 mi SSW 4.6 mph - N/A   Overcast
9:19 AM 50.0 °F - 50.0 °F 100% 29.71 in 10.0 mi SW 5.8 mph - N/A   Overcast
9:38 AM 50.0 °F - 50.0 °F 100% 29.72 in 10.0 mi SSW 5.8 mph - N/A   Overcast
9:59 AM 51.8 °F - 50.0 °F 94% 29.72 in 7.0 mi WSW 5.8 mph - N/A   Drizzle
10:19 AM 51.8 °F - 51.8 °F 100% 29.73 in 5.0 mi West 8.1 mph - N/A Rain Rain
10:38 AM 51.8 °F - 51.8 °F 100% 29.74 in 4.0 mi WNW 9.2 mph - N/A Rain Rain
11:06 AM 51.8 °F - 51.8 °F 100% 29.76 in 7.0 mi NW 16.1 mph 20.7 mph N/A   Drizzle
11:39 AM 50.0 °F - 50.0 °F 100% 29.79 in 2.0 mi NW 10.4 mph 18.4 mph N/A Rain Light Rain
11:59 AM 51.8 °F - 50.0 °F 94% 29.80 in 5.0 mi NW 9.2 mph 17.3 mph N/A   Light Drizzle
12:18 PM 51.8 °F - 50.0 °F 94% 29.81 in 10.0 mi NW 6.9 mph - N/A   Overcast
12:39 PM 53.6 °F - 51.8 °F 94% 29.82 in 10.0 mi WNW 9.2 mph - N/A   Mostly Cloudy
12:59 PM 55.4 °F - 51.8 °F 88% 29.82 in 10.0 mi WNW 12.7 mph 19.6 mph N/A   Overcast
1:20 PM 57.2 °F - 48.2 °F 72% 29.83 in 10.0 mi WNW 13.8 mph 20.7 mph N/A   Scattered Clouds
1:38 PM 57.2 °F - 44.6 °F 63% 29.84 in 10.0 mi NW 12.7 mph 20.7 mph N/A   Scattered Clouds
1:59 PM 59.0 °F - 46.4 °F 63% 29.85 in 10.0 mi WNW 15.0 mph 21.9 mph N/A   Scattered Clouds
2:18 PM 59.0 °F - 44.6 °F 59% 29.85 in 10.0 mi West 16.1 mph 21.9 mph N/A   Scattered Clouds
2:38 PM 57.2 °F - 44.6 °F 63% 29.86 in 10.0 mi WNW 17.3 mph 20.7 mph N/A   Mostly Cloudy
2:57 PM 59.0 °F - 44.6 °F 59% 29.87 in 10.0 mi WNW 13.8 mph 19.6 mph N/A   Mostly Cloudy
3:18 PM 59.0 °F - 44.6 °F 59% 29.88 in 10.0 mi WNW 12.7 mph 20.7 mph N/A   Mostly Cloudy
3:38 PM 59.0 °F - 42.8 °F 55% 29.89 in 10.0 mi West 11.5 mph 21.9 mph N/A   Scattered Clouds
3:57 PM 60.8 °F - 44.6 °F 55% 29.90 in 10.0 mi West 13.8 mph 20.7 mph N/A   Mostly Cloudy
4:18 PM 57.2 °F - 42.8 °F 59% 29.92 in 10.0 mi West 9.2 mph 17.3 mph N/A   Scattered Clouds
4:38 PM 59.0 °F - 42.8 °F 55% 29.92 in 10.0 mi WNW 10.4 mph 17.3 mph N/A   Scattered Clouds
4:57 PM 59.0 °F - 44.6 °F 59% 29.93 in 10.0 mi West 8.1 mph - N/A   Mostly Cloudy
5:18 PM 57.2 °F - 42.8 °F 59% 29.94 in 10.0 mi WNW 10.4 mph 16.1 mph N/A   Scattered Clouds
5:38 PM 59.0 °F - 42.8 °F 55% 29.94 in 10.0 mi West 11.5 mph - N/A   Scattered Clouds
6:03 PM 59.0 °F - 44.6 °F 59% 29.95 in 10.0 mi West 9.2 mph - N/A   Clear
6:19 PM 59.0 °F - 42.8 °F 55% 29.96 in 10.0 mi West 8.1 mph - N/A   Clear
6:39 PM 57.2 °F - 44.6 °F 63% 29.96 in 10.0 mi West 6.9 mph - N/A   Clear
7:39 PM 51.8 °F - 46.4 °F 82% 29.98 in 10.0 mi SSW 3.5 mph - N/A   Clear
8:05 PM 50.0 °F - 46.4 °F 87% 29.99 in 10.0 mi South 3.5 mph - N/A   Scattered Clouds
8:19 PM 48.2 °F - 46.4 °F 93% 29.99 in 10.0 mi SSW 3.5 mph - N/A   Mostly Cloudy
8:38 PM 48.2 °F - 46.4 °F 93% 30.00 in 10.0 mi South 4.6 mph - N/A   Mostly Cloudy
9:04 PM 48.2 °F - 46.4 °F 93% 30.01 in 10.0 mi Calm Calm - N/A   Scattered Clouds
9:30 PM 48.2 °F - 46.4 °F 93% 30.02 in 10.0 mi South 3.5 mph - N/A   Scattered Clouds
9:45 PM 48.2 °F - 46.4 °F 93% 30.03 in 10.0 mi Calm Calm - N/A   Scattered Clouds
9:59 PM 46.4 °F - 46.4 °F 100% 30.03 in 10.0 mi Calm Calm - N/A   Scattered Clouds
10:31 PM 46.4 °F - 46.4 °F 100% 30.05 in 10.0 mi Calm Calm - N/A   Clear
10:43 PM 44.6 °F - 44.6 °F 100% 30.05 in 10.0 mi Calm Calm - N/A   Clear
11:02 PM 46.4 °F 45.2 °F 44.6 °F 93% 30.06 in 10.0 mi South 3.5 mph - N/A   Clear
11:18 PM 46.4 °F 45.2 °F 46.4 °F 100% 30.06 in 10.0 mi South 3.5 mph - N/A   Clear
11:44 PM 46.4 °F 45.2 °F 44.6 °F 93% 30.07 in 10.0 mi SSW 3.5 mph - N/A   Clear